Regional Weather Roundup
Issued by NWS

Home | Current Version | Previous Version | Graphics & Text | Print | Product List | Glossary On
Versions: 1 2 3 4 5 6 7 8 9 10 11 12 13 14 15 16 17 18 19 20 21 22 23 24 25 26 27 28 29 30 31 32 33 34 35 36 37 38 39 40 41 42 43 44 45 46 47 48 49 50
604
ASUS45 KABQ 250010
RWRNM
NEW MEXICO REGIONAL WEATHER ROUNDUP
NATIONAL WEATHER SERVICE ALBUQUERQUE NM
600 PM MDT SUN SEP 24 2017

NOTE: "FAIR" MEANS FEW OR NO CLOUDS BELOW 12,000 FEET AGL WITH NO
       SIGNIFICANT WEATHER OR OBSTRUCTIONS TO VISION.

      THIS PRODUCT IS RELEASED AS TWO VERSIONS.  ONE VERSION NEAR
      THE TOP OF THE HOUR CONTAINING PRELIMINARY DATA FROM ALBUQUERQUE
      AND OTHER STATIONS.  A FINAL VERSION WITH ADDITIONAL DATA IS
      ISSUED ABOUT 10 MINUTES AFTER THE HOUR.

NMZ501-503-504-510>518-250100-
NORTHWEST PLATEAU/NORTHCENTRAL MOUNTAINS

CITY           SKY/WX    TMP DP  RH WIND       PRES   REMARKS
FARMINGTON     FAIR      62  17  17 W10       29.97R
6HR MIN TEMP:  59; 6HR MAX TEMP:  65;

LOS ALAMOS     FAIR      63  21  20 S14G20    30.02R
SANTA FE       FAIR      68  21  16 SW8       29.96R
6HR MIN TEMP:  62; 6HR MAX TEMP:  70;

TAOS           FAIR      64  22  20 SW12      30.02R
ANGEL FIRE     FAIR      56  16  20 W17G30    30.06R

$$
NMZ402-403-502-505>509-250100-
WESTCENTRAL MOUNTAINS/SOUTHWEST MOUNTAINS

CITY           SKY/WX    TMP DP  RH WIND       PRES   REMARKS
GALLUP         FAIR      62  11  13 VRB7      30.00S
6HR MIN TEMP:  59; 6HR MAX TEMP:  65;

GRANTS         FAIR      67  13  12 W9        29.97S
SILVER CITY    FAIR      74  35  24 W9        29.91S

$$
NMZ407-409-411-412-250100-
SOUTHERN DESERTS

CITY           SKY/WX    TMP DP  RH WIND       PRES   REMARKS
DEMING         FAIR      81  40  23 SW7       29.83F
6HR MIN TEMP:  75; 6HR MAX TEMP:  83;

LAS CRUCES     FAIR      81  36  19 S9        29.86S
HOLLOMAN AFB   FAIR      82  37  20 S10G18    29.85S
ALAMOGORDO     FAIR      81  37  21 SW10G17   29.85S
T OR C         FAIR      79  28  15 S21G30    29.83S
6HR MIN TEMP:  74; 6HR MAX TEMP:  83;


$$
NMZ519>523-250100-
CENTRAL VALLEYS/CENTRAL HIGHLANDS

CITY           SKY/WX    TMP DP  RH WIND       PRES   REMARKS
ALBUQUERQUE    FAIR      74  21  13 VRB3      29.89S
6HR MIN TEMP:  65; 6HR MAX TEMP:  75;

DOUBLE EAGLE   MOSUNNY   72  28  20 SE9       29.92S
MORIARTY ARPT  FAIR      74  21  14 S14G20    29.96R
6HR MIN TEMP:  69; 6HR MAX TEMP:  76;

CLINES CORNERS FAIR      68  20  16 SW16      30.00R
6HR MIN TEMP:  64; 6HR MAX TEMP:  71;

BELEN          FAIR      76  23  14 S13       29.87S
6HR MIN TEMP:  68; 6HR MAX TEMP:  78;

SOCORRO        FAIR      78  31  17 S12G18    29.83F
6HR MIN TEMP:  71; 6HR MAX TEMP:  81;


$$
NMZ524>526-539-540-250100-
SOUTHCENTRAL MOUNTAINS

CITY           SKY/WX    TMP DP  RH WIND       PRES   REMARKS
RUIDOSO        FAIR      68  37  32 SW10      30.02R

$$
NMZ527>531-250100-
NORTHEAST HIGHLANDS/NORTHEAST PLAINS

CITY           SKY/WX    TMP DP  RH WIND       PRES   REMARKS
LAS VEGAS      FAIR      66  25  21 SW16      29.97R
6HR MIN TEMP:  63; 6HR MAX TEMP:  68;

RATON          NOT AVBL
CLAYTON        FAIR      72  51  47 S17       29.89R
6HR MIN TEMP:  69; 6HR MAX TEMP:  76;


$$
NMZ532>537-250100-
EASTCENTRAL PLAINS

CITY           SKY/WX    TMP DP  RH WIND       PRES   REMARKS
SANTA ROSA     FAIR      75  41  29 S12G21    29.85S
TUCUMCARI      FAIR      79  48  33 S14       29.83R
6HR MIN TEMP:  77; 6HR MAX TEMP:  83;

CANNON AFB     FAIR      77  58  50 S10       29.89S
6HR MIN TEMP:  73; 6HR MAX TEMP:  81;

CLOVIS AIRPORT MOCLDY    75  59  57 S12       29.89S

$$
NMZ028-029-538-250100-
SOUTHEAST PLAINS

CITY           SKY/WX    TMP DP  RH WIND       PRES   REMARKS
ROSWELL        FAIR      82  56  40 SE15      29.81R
6HR MIN TEMP:  77; 6HR MAX TEMP:  85;

ARTESIA        FAIR      81  57  44 SE14      29.82R
CARLSBAD       FAIR      82  60  47 SE13      29.79S
6HR MIN TEMP:  77; 6HR MAX TEMP:  84;

HOBBS          MOCLDY    73  66  78 SE9G15    29.86R


$$




USA.gov is the U.S. government's official web portal to all federal, state and local government web resources and services.